Appleton, MN

2:51 PM CST on December 11, 2019 (GMT -0600)
Appleton Municipal

Weather History for KAQP - November, 2019

Change the Weather History Date:

Tuesday, November 19, 2019

  Actual Average Record
Temperature  
Mean Temperature 36 °F -  
Max Temperature 42 °F 35 °F 57 °F (2012)
Min Temperature 30 °F 19 °F -2 °F (2018)
Degree Days  
Heating Degree Days 29    
Moisture  
Dew Point 33 °F    
Average Humidity 84    
Maximum Humidity 100    
Minimum Humidity 70    
Precipitation  
Precipitation 0.00 in - - ()
Sea Level Pressure  
Sea Level Pressure 29.83 in    
Wind  
Wind Speed 5 mph ()    
Max Wind Speed 13 mph    
Max Gust Speed 17 mph    
Visibility 9.8 miles    
Events      
Averages and records for this station are not official NWS values.
T = Trace of Precipitation, MM = Missing Value Source: Averaged Metar Reports

Daily Weather History Graph

Daily Weather History Graph

Search for Another Location

Airport or City:

Astronomy

Nov. 19, 2019 Rise Set
Actual Time 7:27 AM CST 4:50 PM CST
Civil Twilight 6:55 AM CST 5:23 PM CST
Nautical Twilight 6:19 AM CST 5:59 PM CST
Astronomical Twilight 5:44 AM CST 6:34 PM CST
Moon 11:51 PM CST (11/19) 1:36 PM CST (11/19)
Length of Visible Light 10h 27m
Length of Day
9h 23m
Waning Gibbous, 51% of the Moon is Illuminated
Nov 19
Waning Gibbous
Nov 19
Last Quarter
Nov 26
New
Dec 4
First Quarter
Dec 11
Full

Hourly Weather History & Observations

Time (CST) Temp. Windchill Dew Point Humidity Pressure Visibility Wind Dir Wind Speed Gust Speed Precip Events Conditions
12:11 AM 35.6 °F - 33.8 °F 93% 29.68 in 10.0 mi Calm Calm - N/A   Clear
12:30 AM 35.6 °F 28.6 °F 35.6 °F 100% 29.68 in 10.0 mi West 9.2 mph - N/A   Clear
12:50 AM 35.6 °F 28.6 °F 33.8 °F 93% 29.68 in 10.0 mi West 9.2 mph - N/A   Clear
1:10 AM 35.6 °F 29.2 °F 33.8 °F 93% 29.68 in 10.0 mi West 8.1 mph - N/A   Clear
1:31 AM 35.6 °F 29.2 °F 33.8 °F 93% 29.68 in 10.0 mi West 8.1 mph - N/A   Clear
1:51 AM 35.6 °F 27.5 °F 33.8 °F 93% 29.68 in 10.0 mi West 11.5 mph - N/A   Clear
2:11 AM 35.6 °F 28.6 °F 32.0 °F 87% 29.68 in 10.0 mi West 9.2 mph - N/A   Clear
2:31 AM 33.8 °F 26.4 °F 30.2 °F 87% 29.69 in 10.0 mi West 9.2 mph - N/A   Clear
2:51 AM 33.8 °F - 30.2 °F 87% 29.70 in 10.0 mi Calm Calm - N/A   Clear
3:10 AM 33.8 °F - 30.2 °F 87% 29.70 in 10.0 mi Calm Calm - N/A   Clear
3:31 AM 33.8 °F 27.0 °F 30.2 °F 87% 29.70 in 10.0 mi WNW 8.1 mph - N/A   Clear
3:51 AM 35.6 °F 32.8 °F 30.2 °F 81% 29.70 in 10.0 mi WNW 3.5 mph - N/A   Clear
4:11 AM 33.8 °F 27.0 °F 30.2 °F 87% 29.71 in 10.0 mi West 8.1 mph - N/A   Clear
4:31 AM 32.0 °F 25.6 °F 28.4 °F 87% 29.72 in 10.0 mi West 6.9 mph - N/A   Clear
4:50 AM 32.0 °F 25.6 °F 28.4 °F 87% 29.72 in 10.0 mi West 6.9 mph - N/A   Clear
5:11 AM 32.0 °F 25.6 °F 28.4 °F 87% 29.73 in 10.0 mi West 6.9 mph - N/A   Clear
5:30 AM 30.2 °F 23.4 °F 28.4 °F 93% 29.74 in 10.0 mi West 6.9 mph - N/A   Clear
5:50 AM 30.2 °F 24.3 °F 28.4 °F 93% 29.74 in 10.0 mi WNW 5.8 mph - N/A   Clear
6:11 AM 30.2 °F 22.6 °F 28.4 °F 93% 29.75 in 10.0 mi West 8.1 mph - N/A   Clear
6:30 AM 32.0 °F - 28.4 °F 87% 29.75 in 10.0 mi Calm Calm - N/A   Mostly Cloudy
6:50 AM 33.8 °F - 30.2 °F 87% 29.76 in 10.0 mi Calm Calm - N/A   Overcast
7:10 AM 33.8 °F - 30.2 °F 87% 29.76 in 10.0 mi Calm Calm - N/A   Overcast
7:31 AM 33.8 °F - 30.2 °F 87% 29.77 in 10.0 mi Calm Calm - N/A   Overcast
7:51 AM 33.8 °F - 30.2 °F 87% 29.78 in 10.0 mi Calm Calm - N/A   Overcast
8:11 AM 35.6 °F 30.7 °F 32.0 °F 87% 29.79 in 10.0 mi West 5.8 mph - N/A   Overcast
8:30 AM 35.6 °F 30.7 °F 32.0 °F 87% 29.79 in 10.0 mi West 5.8 mph - N/A   Overcast
8:51 AM 35.6 °F 30.7 °F 32.0 °F 87% 29.80 in 10.0 mi West 5.8 mph - N/A   Overcast
9:11 AM 35.6 °F 29.9 °F 32.0 °F 87% 29.80 in 10.0 mi West 6.9 mph - N/A   Overcast
9:31 AM 35.6 °F 30.7 °F 33.8 °F 93% 29.81 in 10.0 mi West 5.8 mph - N/A   Overcast
9:51 AM 37.4 °F 31.4 °F 33.8 °F 87% 29.82 in 10.0 mi WNW 8.1 mph - N/A   Overcast
10:11 AM 39.2 °F 32.5 °F 35.6 °F 87% 29.82 in 10.0 mi WNW 10.4 mph - N/A   Overcast
10:30 AM 39.2 °F 32.5 °F 35.6 °F 87% 29.82 in 10.0 mi NW 10.4 mph 17.3 mph N/A   Overcast
10:50 AM 41.0 °F 33.9 °F 35.6 °F 81% 29.83 in 10.0 mi NW 12.7 mph - N/A   Overcast
11:10 AM 41.0 °F 34.3 °F 35.6 °F 81% 29.84 in 10.0 mi NW 11.5 mph - N/A   Overcast
11:31 AM 42.8 °F 37.5 °F 35.6 °F 76% 29.84 in 10.0 mi NW 9.2 mph - N/A   Overcast
11:50 AM 42.8 °F 37.5 °F 35.6 °F 76% 29.85 in 10.0 mi NW 9.2 mph - N/A   Overcast
12:11 PM 42.8 °F 36.2 °F 35.6 °F 76% 29.85 in 10.0 mi NW 12.7 mph - N/A   Overcast
12:30 PM 42.8 °F 36.6 °F 35.6 °F 76% 29.85 in 10.0 mi NW 11.5 mph 16.1 mph N/A   Overcast
12:50 PM 42.8 °F 37.5 °F 35.6 °F 76% 29.86 in 10.0 mi NW 9.2 mph - N/A   Overcast
1:10 PM 42.8 °F 37.0 °F 35.6 °F 76% 29.85 in 10.0 mi NW 10.4 mph - N/A   Overcast
1:31 PM 42.8 °F 36.6 °F 35.6 °F 76% 29.86 in 10.0 mi NW 11.5 mph - N/A   Overcast
1:51 PM 42.8 °F 39.3 °F 35.6 °F 76% 29.86 in 10.0 mi NNW 5.8 mph - N/A   Overcast
2:11 PM 42.8 °F 37.5 °F 35.6 °F 76% 29.86 in 10.0 mi NW 9.2 mph - N/A   Overcast
2:31 PM 42.8 °F 38.0 °F 35.6 °F 76% 29.86 in 10.0 mi NW 8.1 mph - N/A   Overcast
2:50 PM 42.8 °F 37.5 °F 35.6 °F 76% 29.87 in 10.0 mi NW 9.2 mph - N/A   Overcast
3:11 PM 42.8 °F 38.6 °F 33.8 °F 70% 29.86 in 10.0 mi NNW 6.9 mph - N/A   Overcast
3:30 PM 41.0 °F 38.0 °F 35.6 °F 81% 29.87 in 10.0 mi NW 4.6 mph - N/A   Overcast
3:51 PM 41.0 °F 35.8 °F 33.8 °F 76% 29.87 in 10.0 mi NW 8.1 mph - N/A   Overcast
4:11 PM 41.0 °F - 35.6 °F 81% 29.86 in 10.0 mi Calm Calm - N/A   Overcast
4:31 PM 41.0 °F - 33.8 °F 76% 29.87 in 10.0 mi Calm Calm - N/A   Overcast
4:50 PM 39.2 °F - 33.8 °F 81% 29.88 in 10.0 mi Calm Calm - N/A   Overcast
5:11 PM 41.0 °F - 33.8 °F 76% 29.89 in 10.0 mi Calm Calm - N/A   Overcast
5:30 PM 39.2 °F - 33.8 °F 81% 29.90 in 10.0 mi Calm Calm - N/A   Overcast
5:50 PM 39.2 °F - 33.8 °F 81% 29.91 in 10.0 mi Calm Calm - N/A   Overcast
6:11 PM 39.2 °F - 33.8 °F 81% 29.92 in 10.0 mi Calm Calm - N/A   Overcast
6:31 PM 39.2 °F - 33.8 °F 81% 29.92 in 10.0 mi Calm Calm - N/A   Overcast
6:50 PM 37.4 °F - 33.8 °F 87% 29.92 in 10.0 mi Calm Calm - N/A   Overcast
7:11 PM 37.4 °F - 33.8 °F 87% 29.92 in 10.0 mi Calm Calm - N/A   Overcast
7:30 PM 39.2 °F - 33.8 °F 81% 29.93 in 10.0 mi Calm Calm - N/A   Overcast
7:50 PM 37.4 °F - 33.8 °F 87% 29.94 in 10.0 mi Calm Calm - N/A   Overcast
8:10 PM 37.4 °F - 33.8 °F 87% 29.93 in 10.0 mi Calm Calm - N/A   Overcast
8:31 PM 37.4 °F - 33.8 °F 87% 29.93 in 7.0 mi Calm Calm - N/A   Overcast
8:51 PM 37.4 °F - 33.8 °F 87% 29.94 in 5.0 mi Calm Calm - N/A   Overcast
9:11 PM 39.2 °F - 32.0 °F 75% 29.95 in 10.0 mi Calm Calm - N/A   Overcast
9:30 PM 37.4 °F - 33.8 °F 87% 29.96 in 7.0 mi Calm Calm - N/A   Overcast
9:51 PM 37.4 °F - 33.8 °F 87% 29.96 in 7.0 mi Calm Calm - N/A   Overcast
10:11 PM 37.4 °F - 33.8 °F 87% 29.96 in 7.0 mi Calm Calm - N/A   Overcast
10:30 PM 37.4 °F - 33.8 °F 87% 29.97 in 10.0 mi Calm Calm - N/A   Overcast
10:50 PM 37.4 °F - 33.8 °F 87% 29.97 in 10.0 mi Calm Calm - N/A   Overcast
11:10 PM 37.4 °F - 33.8 °F 87% 29.96 in 10.0 mi Calm Calm - N/A   Overcast
11:31 PM 37.4 °F - 33.8 °F 87% 29.97 in 10.0 mi Calm Calm - N/A   Overcast
11:51 PM 37.4 °F - 33.8 °F 87% 29.97 in 10.0 mi Calm Calm - N/A   Overcast